GEFSSE_500_meanwind_228.txt.gz
Wind_Speed
17 16 16 15 15 14 14 13 12 11 10 10 9 9 9 9 9 9 9 9 9 9 9 9 9 9 10 10 11 11 11 12 12 12 13 13 14 14 14 14 14 15 16
19 18 18 17 16 16 15 14 13 13 12 12 11 11 11 11 11 11 11 11 10 10 10 11 11 11 11 12 12 13 14 14 15 15 15 15 15 15 16 16 16 17 17
22 21 20 19 18 18 17 16 15 15 14 14 13 13 13 13 12 12 12 12 12 12 12 12 13 13 13 13 14 14 15 16 16 16 16 16 16 17 17 18 18 18 19
24 23 22 21 21 20 19 18 17 17 16 15 15 14 14 14 14 13 13 14 14 14 14 14 14 14 15 15 15 16 16 16 17 17 17 17 18 18 19 19 20 20 20
26 25 24 23 22 21 20 20 19 18 17 17 16 16 16 15 15 15 15 15 16 16 16 16 16 16 16 17 17 17 17 17 17 18 18 19 19 20 20 21 21 21 21
28 27 26 25 24 23 22 21 21 20 19 18 18 17 17 17 17 17 17 17 17 17 17 17 17 18 18 18 18 18 18 18 19 19 20 20 21 21 22 22 23 23 23
30 29 28 27 25 24 23 23 22 21 20 19 19 18 18 18 18 18 18 18 18 19 19 19 19 19 19 19 19 19 20 20 20 21 21 22 22 23 23 23 23 23 23
32 31 30 28 27 26 25 24 23 22 22 21 20 20 20 19 19 19 20 20 20 20 20 20 20 20 20 20 20 21 21 21 22 22 22 23 23 23 24 24 24 25 25
33 33 32 30 29 28 27 26 25 24 23 23 22 22 22 21 21 21 21 21 21 21 21 21 21 21 21 22 22 22 22 23 23 23 23 24 24 25 25 26 26 26 27
35 34 33 32 31 30 29 28 27 26 25 25 24 24 23 23 23 23 23 22 22 22 22 22 22 22 23 23 23 24 24 24 24 24 25 25 25 26 26 27 27 27 28
37 36 35 33 32 32 31 30 29 28 27 26 26 26 25 25 25 24 24 23 23 23 23 23 23 24 24 24 24 25 25 25 25 25 26 27 27 27 28 28 28 28 28
38 37 36 35 34 33 32 31 30 30 29 28 28 27 27 26 26 26 25 25 25 24 24 24 24 25 25 26 26 27 27 27 27 27 28 28 29 29 29 29 29 29 29
39 37 37 36 35 34 33 33 32 31 30 30 29 29 28 28 27 27 26 26 26 26 26 26 26 27 27 28 28 28 28 28 28 29 29 30 30 30 30 30 30 30 31
40 38 38 37 36 35 35 34 33 32 32 31 31 30 29 29 28 28 27 27 27 27 27 27 27 28 28 29 29 29 30 30 30 30 31 31 31 31 31 32 31 32 32
40 39 38 38 37 36 35 35 34 33 33 32 31 31 30 30 29 29 29 29 28 29 29 29 29 29 30 30 30 30 31 31 31 31 32 32 32 32 32 33 33 34 34
40 40 39 38 38 37 36 35 35 34 33 33 32 32 31 31 30 30 30 30 30 30 30 30 30 30 30 31 31 31 32 32 32 33 33 33 33 33 34 34 35 35 36
40 40 39 39 38 38 37 36 36 35 34 34 33 32 32 32 31 31 31 31 31 31 30 30 31 31 31 31 31 32 32 33 33 33 33 33 33 34 34 35 36 37 37
40 39 39 39 39 38 37 37 36 36 35 35 34 34 33 33 32 32 32 31 31 31 31 31 31 31 31 31 31 32 33 33 33 33 33 33 34 34 35 36 37 38 38
41 41 40 39 39 39 38 37 36 36 35 35 35 35 34 34 33 33 32 32 32 31 31 32 32 32 31 31 31 32 33 33 33 33 33 34 35 35 36 37 38 39 39
41 41 41 40 40 39 38 38 37 36 35 35 35 35 35 36 35 34 33 33 32 32 32 31 31 31 31 31 31 32 32 33 33 34 34 35 36 36 37 38 39 39 40
41 41 41 41 40 39 39 38 37 36 36 36 36 35 36 35 35 34 34 33 33 32 31 31 31 31 31 31 32 32 33 33 34 34 35 35 36 36 37 38 39 39 40
41 41 41 41 41 40 39 38 38 37 37 36 35 35 35 35 35 34 34 33 32 32 31 31 31 31 32 31 31 32 32 33 33 34 35 35 36 37 38 39 39 39 40
40 40 41 41 41 40 39 39 38 37 37 36 35 35 35 35 35 34 33 32 32 32 32 32 32 31 32 32 33 33 34 34 34 34 35 36 37 38 39 40 41 41 42
40 40 41 40 40 39 39 39 38 38 37 36 36 35 35 35 34 33 33 33 32 32 32 31 31 32 32 33 33 34 35 36 36 35 36 37 38 39 41 42 42 43 43
41 41 40 41 40 40 39 39 39 38 37 36 36 36 35 35 34 33 33 33 32 32 32 32 32 33 33 34 34 35 35 36 37 38 37 38 39 41 42 43 43 44 45
42 42 40 41 41 40 40 39 39 39 38 37 36 36 36 35 35 34 34 33 33 33 33 33 33 33 34 35 35 36 36 37 38 39 39 40 41 41 42 43 44 45 46

GEFSSE_500_meanwind_234.txt.gz
Wind_Speed
16 15 15 14 13 13 12 11 10 10 9 9 8 8 8 7 7 7 7 7 7 7 8 8 8 8 9 9 9 10 10 11 12 13 13 13 13 14 15 15 15 15 16
18 17 16 15 15 14 13 12 12 11 11 11 10 10 10 9 9 8 8 9 9 9 9 9 9 10 10 10 11 11 12 12 13 14 14 14 14 15 15 16 16 17 17
20 19 18 17 16 16 15 14 14 13 13 12 12 12 11 11 10 10 10 10 10 10 10 11 11 11 11 12 12 12 13 13 14 15 15 15 15 16 16 17 17 18 18
23 21 21 20 19 18 17 16 16 16 15 15 14 13 13 12 12 12 11 11 12 12 12 12 12 12 13 13 13 14 14 14 15 15 16 16 16 17 17 18 18 18 19
25 24 23 22 21 20 19 19 18 18 17 16 16 15 14 14 13 13 13 13 13 13 13 13 13 14 14 14 15 15 15 15 16 16 17 17 17 18 18 19 19 20 21
27 27 26 25 24 22 21 21 20 19 19 18 17 16 16 15 15 15 15 15 15 15 15 15 15 15 16 16 16 16 16 17 17 17 18 18 19 20 20 20 21 21 22
30 29 28 27 26 25 23 23 22 21 20 20 19 18 17 17 17 16 16 16 16 16 16 16 17 17 17 17 17 18 18 18 18 19 20 20 20 21 22 22 22 22 22
33 32 31 30 28 27 26 25 24 23 22 21 20 20 19 19 18 18 18 17 17 17 17 18 18 18 18 18 19 19 19 19 20 20 21 21 22 22 23 23 23 23 23
34 33 33 32 31 30 28 27 25 25 24 23 22 22 21 20 20 20 19 19 19 19 19 19 19 19 19 19 20 20 20 20 21 22 22 23 23 23 24 24 25 25 25
35 35 34 33 32 31 30 28 27 26 26 25 24 23 23 22 22 22 22 21 21 21 21 21 20 21 21 21 21 22 22 22 23 23 24 24 25 25 26 26 26 27 27
36 36 36 35 34 33 32 30 29 28 28 27 26 25 25 24 24 24 23 23 23 22 22 22 22 22 22 22 23 23 24 24 24 25 25 26 27 27 27 27 27 28 28
38 37 37 36 35 34 33 32 31 30 30 29 28 27 27 26 26 25 25 24 24 24 24 23 23 24 23 24 24 25 25 25 25 26 27 27 28 28 29 29 29 29 30
38 38 37 37 36 35 34 34 32 32 31 30 30 29 28 28 27 27 26 26 26 25 25 25 25 25 25 25 25 26 26 26 27 27 28 29 29 29 30 30 31 31 31
40 39 38 38 37 36 35 34 34 33 33 32 31 31 30 29 29 29 28 28 27 27 27 27 27 26 26 26 26 26 27 28 28 28 29 29 30 30 31 32 32 32 32
41 40 39 38 38 37 36 35 35 34 34 33 32 32 31 31 31 30 30 29 29 29 29 29 28 28 28 28 28 27 28 28 29 30 30 30 30 31 32 32 33 33 33
41 41 40 39 39 38 37 36 36 35 35 34 33 33 33 32 32 31 31 30 30 30 30 29 29 29 29 29 29 29 29 29 30 30 30 30 31 32 32 33 33 33 34
41 41 41 40 39 38 37 37 37 37 36 35 34 34 34 33 33 32 31 31 31 31 31 30 30 31 31 31 31 30 30 30 30 31 31 32 32 32 33 33 33 34 34
41 41 41 41 40 39 38 38 38 38 36 36 35 35 34 34 33 33 32 32 32 32 32 32 32 32 32 32 31 31 31 31 31 32 32 32 32 32 33 33 33 34 34
41 41 42 42 41 40 39 38 38 38 37 36 36 36 35 35 34 34 33 33 33 33 33 33 32 32 32 32 32 32 32 32 32 32 32 32 32 32 33 33 34 35 35
41 41 41 41 41 41 40 39 39 39 38 37 37 37 36 35 35 34 34 34 33 34 33 33 33 33 33 32 32 32 33 33 32 32 32 33 33 33 33 34 35 35 36
41 41 41 41 41 41 41 40 40 39 39 39 38 37 37 36 35 35 35 35 34 34 33 33 33 33 33 33 33 33 33 33 33 33 34 34 34 34 34 35 36 37 38
41 41 40 41 41 41 40 40 40 39 39 39 38 38 37 37 36 36 36 35 35 34 34 33 33 33 34 33 33 33 33 33 33 34 34 34 34 35 36 37 38 39 40
40 40 40 41 40 40 40 40 40 39 39 39 39 38 38 37 36 37 36 35 34 34 34 33 33 33 33 33 33 33 34 34 34 33 34 35 35 36 37 38 39 40 41
41 40 40 40 40 40 41 41 40 39 39 39 39 39 39 38 37 36 36 36 35 34 33 33 33 33 33 33 34 34 35 35 35 35 34 35 35 36 38 39 40 41 43
41 41 40 40 40 40 40 41 41 39 38 39 39 39 38 37 37 37 36 36 36 35 34 33 33 33 33 33 34 35 35 36 36 36 35 35 36 37 39 40 41 43 44
41 40 40 40 39 39 39 40 41 40 38 38 39 38 38 37 37 37 37 37 36 36 35 34 34 34 34 34 34 34 35 36 36 37 36 36 37 38 39 41 42 44 45

GEFSSE_500_meanwind_240.txt.gz
Wind_Speed
18 17 16 15 14 14 13 12 11 10 9 8 6 6 5 5 5 4 4 4 4 5 6 6 7 7 7 7 8 9 9 10 11 11 12 12 13 14 14 14 15 15 16
19 18 17 16 15 14 13 13 12 11 10 9 8 7 7 7 6 6 6 5 6 6 7 7 8 8 8 9 9 10 11 11 12 12 13 13 14 14 15 15 16 16 16
21 20 19 18 17 15 15 14 13 13 12 11 10 9 9 8 8 8 7 7 7 8 8 9 9 9 10 10 10 11 12 12 13 13 14 14 14 15 15 16 16 17 18
23 22 21 20 19 17 16 16 15 14 13 12 12 11 10 10 10 9 9 9 9 9 10 10 11 11 11 11 11 12 13 13 14 14 15 15 15 16 16 17 17 18 19
25 24 23 22 21 20 19 18 16 15 15 14 13 13 12 12 12 11 11 11 11 11 11 12 12 12 12 12 12 13 14 15 15 16 16 16 16 17 18 18 19 19 20
27 27 26 25 24 23 22 20 19 18 17 16 15 15 14 14 13 13 13 13 13 13 13 12 13 13 13 13 14 15 15 16 16 17 17 17 18 18 19 19 20 20 21
29 29 28 27 27 26 25 23 22 21 19 18 17 17 16 16 15 15 15 15 14 14 14 14 14 14 15 15 16 16 17 18 18 18 18 19 19 20 20 21 21 22 22
31 31 30 30 29 28 27 26 25 23 22 20 19 19 18 18 17 17 17 16 16 16 16 16 16 16 16 17 17 18 18 18 19 19 20 20 21 21 22 22 22 23 23
33 33 32 31 31 30 29 28 27 26 24 23 22 21 20 19 19 19 18 18 18 18 18 18 18 18 18 19 19 19 20 20 20 21 21 22 22 23 23 23 24 24 25
34 34 34 33 32 32 31 30 29 28 27 25 24 23 22 22 21 20 20 20 19 19 19 19 19 20 20 20 21 21 21 21 22 22 23 23 24 24 25 25 25 26 26
36 35 35 35 34 34 32 31 30 29 28 27 26 25 24 24 23 22 22 21 21 21 21 21 21 21 21 22 22 22 23 23 24 24 24 25 25 26 26 27 27 27 27
37 37 37 36 36 35 35 33 32 31 30 29 28 27 26 25 25 24 23 23 23 22 22 22 22 23 23 23 24 24 24 24 25 25 25 26 26 27 27 28 28 28 28
39 38 38 37 37 36 36 35 33 32 32 31 30 29 28 27 27 26 25 24 25 24 24 24 24 24 24 25 25 25 25 26 26 26 26 27 27 28 29 29 30 30 30
40 39 39 38 38 38 37 36 35 34 33 32 31 31 30 29 28 28 27 26 26 26 26 25 26 26 26 26 26 26 26 27 27 27 28 28 29 30 30 30 31 31 31
40 40 39 39 39 39 38 37 37 36 35 34 33 32 31 30 30 29 29 28 27 28 27 27 27 27 27 27 28 28 28 28 28 28 29 29 30 30 31 31 31 32 32
41 41 40 39 39 39 39 39 38 37 36 35 35 34 33 32 31 31 30 30 29 29 29 29 29 29 29 29 29 30 30 30 30 30 30 30 31 31 31 31 32 32 33
42 42 42 41 40 40 40 39 39 38 37 36 36 36 35 33 32 32 31 31 31 31 31 30 30 30 30 30 31 31 31 31 31 31 31 31 31 31 32 32 32 33 33
42 42 43 43 42 41 40 40 40 40 39 38 37 37 36 35 34 33 33 33 32 32 32 31 31 31 31 31 32 32 32 32 32 32 32 32 32 32 32 33 33 33 34
42 42 42 42 42 41 41 40 40 40 40 39 38 38 37 36 35 35 34 34 33 33 33 32 32 32 32 32 33 33 33 33 33 32 32 32 32 33 33 33 34 34 35
42 42 42 42 43 43 42 41 41 41 41 41 40 39 38 37 36 36 35 34 34 33 33 33 33 33 34 34 33 34 33 33 33 33 33 33 34 34 34 35 35 36 36
42 41 41 42 42 42 43 42 42 41 41 41 41 40 39 39 38 37 37 36 36 35 35 34 35 34 35 35 35 35 34 34 34 34 34 34 34 35 35 36 36 37 38
43 43 41 42 42 42 42 42 42 42 42 43 43 42 40 40 40 39 38 37 37 37 36 36 36 36 36 36 36 35 35 35 35 34 34 34 35 35 36 36 37 38 38
42 42 42 41 41 42 42 42 41 41 43 43 42 41 40 40 40 39 38 38 38 38 37 36 36 37 37 37 37 36 36 35 35 34 34 35 36 36 36 37 37 38 39
42 42 42 41 41 42 42 43 43 41 42 42 41 40 40 40 40 39 39 38 38 37 37 37 37 37 37 37 37 37 37 37 36 35 35 36 36 36 37 38 38 39 40
42 42 42 42 42 41 41 42 43 42 41 41 40 41 40 39 40 39 39 38 37 37 36 37 37 37 37 37 37 37 37 37 37 36 36 35 36 37 38 39 40 40 41
42 42 43 43 43 43 42 42 43 42 42 41 40 40 40 39 39 39 39 39 38 37 36 36 37 37 38 38 37 38 37 37 37 37 36 36 36 37 38 39 40 41 42

GEFSSE_500_meanwind_246.txt.gz
Wind_Speed
18 18 17 16 16 16 15 14 13 12 12 11 11 10 9 9 8 7 6 6 5 5 4 4 4 4 4 4 5 5 5 6 7 8 8 9 10 11 11 12 12 13 14
19 19 19 18 17 17 17 16 15 14 14 13 12 12 11 10 9 8 8 7 7 6 6 6 6 6 5 6 6 6 7 7 8 9 9 10 11 11 12 12 13 14 15
21 20 20 20 19 19 18 18 17 16 16 15 14 13 12 11 10 10 9 9 8 8 7 7 7 7 7 7 7 7 8 8 9 10 11 11 12 12 13 13 14 15 15
23 22 21 21 20 20 20 19 19 19 18 17 16 15 14 13 12 11 11 10 10 9 9 8 8 8 8 8 8 8 9 10 10 11 12 13 13 13 14 14 15 16 16
25 23 23 22 22 21 21 21 20 20 20 19 18 17 16 15 14 14 13 12 12 11 10 10 9 9 9 9 10 10 10 10 11 12 13 14 14 15 15 16 16 17 17
26 25 25 24 24 23 22 22 22 21 21 20 20 19 18 17 16 15 14 14 13 12 12 11 11 11 11 11 11 11 12 12 13 14 14 15 15 16 17 17 18 18 19
29 27 27 26 25 25 24 24 23 22 22 21 21 20 20 19 18 17 16 15 14 14 13 13 13 12 12 12 13 13 13 13 14 15 16 16 17 17 18 19 19 20 20
31 30 28 28 27 27 26 26 25 25 24 23 23 22 22 21 20 19 18 17 16 16 15 15 15 14 14 14 14 14 15 15 16 17 17 18 18 18 19 20 20 21 21
33 32 30 30 29 29 28 28 27 27 26 25 25 25 24 23 22 21 20 19 18 17 17 17 17 16 16 16 16 16 16 17 17 18 19 20 20 20 21 21 22 22 22
35 34 32 31 31 30 30 30 29 29 28 27 27 27 26 25 25 24 22 21 20 19 18 18 18 18 18 18 18 18 18 18 19 20 20 21 21 22 22 23 23 24 24
37 36 34 33 32 32 32 32 32 31 30 29 29 29 28 27 27 25 24 23 21 21 20 20 20 20 19 20 19 20 20 20 20 21 21 22 23 23 24 25 25 25 25
39 38 36 35 34 34 34 34 33 32 32 31 30 30 30 29 28 27 26 25 23 22 22 22 21 21 21 21 21 21 22 22 22 22 23 23 24 25 25 26 26 27 27
40 39 39 37 36 36 36 36 35 34 34 33 32 31 31 31 30 29 28 27 26 24 23 23 23 23 22 22 22 23 23 23 23 24 24 25 25 26 27 27 28 28 28
42 41 40 38 38 37 37 37 36 36 35 35 34 33 32 32 31 30 29 29 28 26 25 25 24 24 24 24 24 24 24 25 25 25 26 27 27 27 28 28 29 29 30
43 42 41 40 39 39 39 38 38 37 36 36 34 34 34 33 32 32 31 30 30 28 28 26 26 26 26 26 26 26 26 26 26 26 27 28 28 29 29 29 30 30 31
44 43 42 41 40 39 39 39 39 39 38 37 36 35 35 35 34 33 32 31 31 30 30 29 27 27 27 27 27 27 27 27 28 28 28 29 30 30 30 30 30 31 31
44 43 42 41 41 41 41 40 39 39 39 39 38 36 36 36 35 34 34 33 33 32 31 30 29 28 28 28 28 28 28 29 29 29 29 30 30 30 30 31 31 31 31
44 43 43 42 42 41 41 40 40 40 39 39 39 38 38 37 36 36 35 35 34 34 33 32 31 30 29 29 29 29 29 29 30 30 30 30 31 31 31 31 32 32 32
44 43 43 42 41 41 41 40 40 40 39 39 39 38 38 38 38 37 37 36 36 35 34 33 32 32 31 30 30 30 30 30 31 31 31 31 32 32 32 32 33 33 34
44 43 43 43 42 41 40 40 40 39 39 39 39 39 39 39 38 38 37 36 36 36 35 34 34 33 32 31 31 31 31 31 32 32 32 32 33 33 33 33 34 34 35
44 44 44 44 43 42 41 40 40 40 40 40 39 39 40 40 40 39 38 38 38 37 37 36 35 34 33 32 32 32 32 32 33 33 33 33 34 34 34 35 35 36 36
45 44 43 42 43 43 42 41 41 41 41 41 40 41 41 41 41 40 40 38 39 38 38 37 35 35 34 34 34 34 33 33 34 34 34 34 34 35 36 36 36 37 37
45 45 43 43 43 44 44 43 43 43 42 42 42 42 42 41 41 41 40 39 38 38 37 37 36 35 35 35 35 35 35 34 35 35 35 35 35 36 36 36 37 38 38
46 45 44 44 43 43 44 43 43 42 42 43 42 42 42 42 42 42 42 41 39 38 37 37 36 36 36 35 35 35 36 36 36 36 36 36 36 36 36 37 38 38 38
45 45 44 45 43 43 44 42 43 43 43 44 44 43 42 42 42 42 42 42 41 39 38 37 37 37 36 36 36 36 36 37 37 36 36 36 36 37 37 38 38 39 39
46 45 46 44 44 43 43 42 41 42 43 45 46 45 44 43 43 41 41 41 41 40 39 38 37 37 37 37 37 37 37 37 36 37 37 37 37 37 37 38 38 39 40

GEFSSE_500_meanwind_252.txt.gz
Wind_Speed
20 19 18 18 17 17 16 15 14 13 12 12 11 10 10 10 9 8 8 7 7 7 6 6 5 5 5 5 5 5 5 5 6 6 7 8 9 9 9 10 11 12 13
21 21 20 19 19 18 18 17 16 15 14 14 13 12 11 11 11 10 10 9 9 8 8 7 7 6 6 6 6 6 6 6 7 7 8 9 9 10 11 12 12 13 14
24 23 22 21 20 20 20 19 18 17 16 15 15 14 13 13 12 12 11 11 10 9 9 9 8 8 8 7 7 7 7 8 8 8 9 9 10 11 12 13 13 14 14
26 25 24 23 22 22 21 21 20 19 18 17 16 16 15 15 14 14 13 12 12 11 11 10 10 9 9 9 9 8 9 9 9 10 10 11 11 12 13 13 14 14 15
28 27 27 26 25 24 23 22 21 21 20 19 19 18 17 17 16 16 15 14 14 13 12 12 12 11 11 10 10 10 10 11 11 11 11 12 12 13 13 14 14 15 16
30 29 29 28 27 26 25 25 24 23 22 21 21 20 19 19 18 17 17 16 15 15 14 14 13 13 12 12 12 12 12 13 13 13 12 13 13 14 14 15 15 16 16
32 32 31 30 29 28 27 26 26 25 24 23 22 22 21 20 20 20 19 18 17 17 16 16 15 14 14 14 14 14 14 14 14 14 14 15 15 15 15 16 16 17 17
34 33 33 32 31 30 29 29 28 27 26 25 25 24 23 22 22 21 20 20 19 18 18 18 17 17 16 16 15 15 16 16 15 15 16 16 17 17 17 17 18 18 19
36 35 35 34 33 32 31 30 30 29 28 27 27 26 25 24 24 23 23 22 22 21 20 20 19 18 18 17 17 17 17 17 17 17 17 17 17 18 18 18 19 20 21
38 37 36 36 34 34 33 32 32 31 30 29 29 28 26 26 26 26 26 25 24 23 22 22 21 20 20 19 19 18 18 18 18 18 18 18 19 19 19 20 20 21 22
39 38 37 37 36 36 35 34 34 33 32 31 31 30 29 28 28 28 28 27 26 25 25 24 23 21 21 21 20 20 20 19 19 19 20 20 21 21 21 21 22 23 24
41 40 39 39 38 37 37 36 36 34 34 33 32 31 30 30 30 29 29 29 28 28 27 25 25 24 22 22 22 21 21 21 20 21 21 22 22 23 23 24 24 24 25
42 42 41 41 41 39 39 38 37 36 35 35 34 32 31 31 31 30 30 30 29 29 28 27 27 26 25 23 23 22 22 22 22 22 23 23 23 24 25 25 25 26 26
43 43 43 42 42 41 40 40 39 38 37 36 35 33 33 32 32 31 31 31 30 30 29 28 28 27 26 25 24 24 23 23 23 23 24 25 25 25 26 27 27 27 28
44 44 44 44 43 43 41 41 40 39 39 37 36 35 34 33 33 33 32 32 32 31 30 30 29 29 28 27 26 25 25 24 24 24 25 26 26 27 27 28 29 29 29
46 45 45 45 44 44 43 42 41 40 39 38 37 37 36 35 35 34 34 33 33 32 31 31 30 30 29 28 27 26 26 26 25 26 27 27 28 28 29 29 29 30 30
47 46 45 45 45 44 43 43 41 40 39 38 38 38 37 36 35 35 35 35 34 33 33 32 31 31 30 29 27 27 28 27 27 28 28 28 29 30 30 30 30 31 31
47 47 46 46 46 45 43 43 42 40 40 39 39 39 38 37 36 35 36 36 35 34 34 33 33 32 31 30 29 29 29 29 29 29 29 30 30 31 31 31 31 32 32
48 47 48 47 47 45 44 44 43 42 41 40 39 39 38 37 37 36 36 36 35 35 34 34 33 32 32 32 31 30 30 30 29 29 30 31 31 31 32 32 32 33 34
48 48 49 49 48 46 45 44 43 43 42 41 40 39 38 37 37 36 36 36 36 36 35 35 34 34 33 33 32 30 30 29 29 30 31 32 32 32 33 33 34 34 35
48 48 48 48 48 48 47 45 44 44 43 42 41 41 39 38 38 37 36 36 36 36 36 36 35 35 35 34 33 31 30 30 30 31 32 33 34 34 34 34 35 35 35
49 48 48 48 48 48 47 46 45 44 44 43 43 42 41 39 38 37 37 37 37 37 37 36 36 35 35 35 34 33 32 31 31 32 33 34 34 34 35 35 35 35 35
48 49 49 49 49 48 47 46 45 45 44 44 43 42 41 41 39 38 38 38 39 38 36 37 38 37 37 36 35 34 34 32 32 33 33 34 35 35 35 35 35 36 36
48 49 49 49 48 48 48 47 46 45 45 44 44 42 42 41 40 40 39 39 40 39 38 37 37 38 37 36 35 36 35 35 35 34 34 35 35 35 36 36 36 36 36
47 48 48 48 48 48 48 48 47 46 46 46 45 44 43 42 42 41 40 39 39 40 39 39 38 37 37 37 36 37 37 36 36 35 35 35 35 36 36 37 37 37 37
45 47 48 48 49 49 47 47 49 48 47 46 46 45 45 44 43 43 42 40 39 40 40 39 40 38 37 36 36 36 37 38 37 36 36 37 37 37 37 37 37 37 38